Le nostre stazioni meteo in Italia

Pubblicità
Il mio iltempo24.it
Bournemouth Airport, Gran Bretagna (3862): Temperatura & dewpoint: 15.08.2019 13:00:00 - 21.08.2019 13:00:00 (BST)Bournemouth Airport, Gran Bretagna (3862): Temperatura -20cm & Temperatura -100cm: 15.08.2019 13:00:00 - 21.08.2019 13:00:00 (BST)Bournemouth Airport, Gran Bretagna (3862): velocità del vento & gusts: 15.08.2019 13:00:00 - 21.08.2019 13:00:00 (BST)Bournemouth Airport, Gran Bretagna (3862): direzione del vento: 15.08.2019 13:00:00 - 21.08.2019 13:00:00 (BST)Bournemouth Airport, Gran Bretagna (3862): reduced air pressure: 15.08.2019 13:00:00 - 21.08.2019 13:00:00 (BST)Bournemouth Airport, Gran Bretagna (3862): visibility: 15.08.2019 13:00:00 - 21.08.2019 13:00:00 (BST)Bournemouth Airport, Gran Bretagna (3862): ore di luce: 15.08.2019 13:00:00 - 21.08.2019 13:00:00 (BST)Bournemouth Airport, Gran Bretagna (3862): precipitazioni: 15.08.2019 13:00:00 - 21.08.2019 13:00:00 (BST)
Data & Tempo tt [°C] td [°C] tt -20cm [°C] tt -100cm [°C] ff [km/h] ff [kn] fx [km/h] fx [kn] dd ppp [hPa] vv [km] sd [min] rr [mm]
21.08.2019 13:00:00 19,4 12,4 - - 16 9 - - S 1027,3 30 54 0,0
21.08.2019 12:00:00 18,6 13,1 - - 15 8 - - S 1027,5 10 36 0,0
21.08.2019 11:00:00 18,6 13,1 - - 13 7 - - S 1027,6 30 48 0,0
21.08.2019 10:00:00 17,4 13,3 17,4 16,7 11 6 - - S 1027,8 10 54 0,0
21.08.2019 09:00:00 13,5 12,9 - - 2 1 - - - 1028,0 10 48 0,0
21.08.2019 08:00:00 10,3 10,0 - - 4 2 - - NO 1027,9 10 12 0,0
21.08.2019 07:00:00 8,0 7,7 - - 2 1 - - E 1027,8 6 0 0,0
21.08.2019 06:00:00 7,1 6,6 - - 4 2 - - N 1027,5 6 0 0,0
21.08.2019 05:00:00 7,7 7,3 - - 2 1 - - NO 1027,4 24 0 0,0
21.08.2019 04:00:00 7,6 7,0 - - 2 1 - - NNE 1027,4 12 0 0,0
21.08.2019 03:00:00 7,7 6,9 - - 4 2 - - NE 1027,3 21 0 0,0
21.08.2019 02:00:00 9,6 9,0 - - 4 2 - - NNE 1027,2 19 0 0,0
21.08.2019 01:00:00 10,2 9,4 - - 2 1 - - NE 1027,4 1,6 - 0,0
21.08.2019 00:00:00 11,1 9,9 - - 2 1 - - E 1027,2 27 0 0,0
20.08.2019 23:00:00 12,3 10,6 - - 4 2 - - NNO 1027,3 21 0 0,0
20.08.2019 22:00:00 13,7 11,1 - - 2 1 - - O 1027,1 10 0 0,0
20.08.2019 21:00:00 14,7 11,2 - - 9 5 - - O 1026,7 10 0 0,0
20.08.2019 20:00:00 17,3 11,1 - - 15 8 - - OSO 1026,1 30 0 0,0
20.08.2019 19:00:00 18,4 11,6 - - 18 10 - - OSO 1025,6 10 6 0,0
20.08.2019 18:00:00 18,9 11,5 - - 22 12 - - OSO 1025,2 10 30 0,0
20.08.2019 17:00:00 19,2 10,6 - - 16 9 - - O 1024,9 10 6 0,0
20.08.2019 16:00:00 19,1 9,8 - - 16 9 - - O 1024,8 40 30 0,0
20.08.2019 15:00:00 19,3 8,7 - - 15 8 - - O 1024,6 10 36 0,0
20.08.2019 14:00:00 19,6 8,8 - - 16 9 - - ONO 1024,3 45 24 0,0
20.08.2019 13:00:00 19,7 9,3 - - 21 11 - - O 1024,1 10 42 0,0
20.08.2019 12:00:00 18,7 10,3 - - 16 9 - - ONO 1024,2 10 36 0,0
20.08.2019 11:00:00 18,2 9,3 - - 21 11 - - ONO 1024,1 10 60 0,0
20.08.2019 10:00:00 16,6 10,9 17,7 16,7 13 7 - - O 1023,8 10 60 0,0
20.08.2019 09:00:00 14,8 11,6 - - 9 5 - - - 1023,3 10 60 0,0
20.08.2019 08:00:00 12,2 11,9 - - 5 3 - - - 1022,6 10 54 0,0
20.08.2019 07:00:00 8,6 8,1 - - 4 2 - - - 1021,9 10 0 0,0
20.08.2019 06:00:00 8,6 8,0 - - 5 3 - - NO 1021,3 22 0 0,0
20.08.2019 05:00:00 9,5 8,7 - - 4 2 - - N 1020,9 28 0 0,0
20.08.2019 04:00:00 10,6 9,6 - - 9 5 - - OSO 1020,6 26 0 0,0
20.08.2019 03:00:00 10,9 9,5 - - 8 4 - - OSO 1020,2 30 0 0,0
20.08.2019 02:00:00 11,6 10,0 - - 5 3 - - OSO 1020,4 30 0 0,0
20.08.2019 01:00:00 11,6 9,6 - - 11 6 - - O 1020,4 30 - 0,0
20.08.2019 00:00:00 12,7 11,2 - - 5 3 - - O 1020,2 30 0 0,0
19.08.2019 23:00:00 12,7 11,4 - - 8 4 - - O 1019,7 24 0 0,0
19.08.2019 22:00:00 14,3 12,2 - - 11 6 - - OSO 1019,2 10 0 0,0
19.08.2019 21:00:00 16,1 12,4 - - 16 9 - - OSO 1018,6 27 0 0,0
19.08.2019 20:00:00 16,9 12,1 - - 21 11 - - OSO 1017,9 28 42 0,0
19.08.2019 19:00:00 18,0 11,5 - - 24 13 - - OSO 1017,5 10 60 0,0
19.08.2019 18:00:00 19,3 11,9 - - 26 14 - - OSO 1017,0 35 54 0,0
19.08.2019 17:00:00 19,6 11,6 - - 29 16 46 25 OSO 1016,7 10 42 0,0
19.08.2019 16:00:00 20,3 11,6 - - 28 15 48 26 OSO 1016,3 10 60 0,0
19.08.2019 15:00:00 20,4 12,0 - - 29 16 - - OSO 1016,2 10 48 0,0
19.08.2019 14:00:00 20,9 11,5 - - 29 16 46 25 OSO 1015,8 10 54 0,0
19.08.2019 13:00:00 20,7 12,2 - - 29 16 - - OSO 1015,3 10 48 0,0
19.08.2019 12:00:00 19,7 11,4 - - 21 11 - - OSO 1015,1 10 42 0,0
19.08.2019 11:00:00 19,3 12,3 - - 26 14 - - OSO 1014,7 45 36 0,0
19.08.2019 10:00:00 17,3 12,7 17,7 16,7 28 15 - - O 1014,3 10 18 0,0
19.08.2019 09:00:00 17,2 12,3 - - 26 14 - - O 1013,7 10 54 0,0
19.08.2019 08:00:00 15,9 12,6 - - 16 9 - - OSO 1013,3 24 60 0,0
19.08.2019 07:00:00 14,2 11,7 - - 15 8 - - OSO 1013,0 10 0 0,0
19.08.2019 06:00:00 14,0 11,5 - - 18 10 - - OSO 1012,4 10 0 0,0
19.08.2019 05:00:00 13,9 11,8 - - 13 7 - - OSO 1012,3 21 0 0,0
19.08.2019 04:00:00 13,9 11,7 - - 13 7 - - OSO 1011,9 22 0 0,0
19.08.2019 03:00:00 14,4 11,7 - - 18 10 - - OSO 1011,7 27 0 0,0
19.08.2019 02:00:00 14,8 11,6 - - 21 11 - - O 1011,6 30 0 0,0
19.08.2019 01:00:00 15,3 12,6 - - 16 9 - - OSO 1011,4 8 - 0,0
19.08.2019 00:00:00 15,5 12,3 - - 21 11 - - OSO 1011,1 21 0 0,0
18.08.2019 23:00:00 14,9 12,1 - - 15 8 - - OSO 1010,9 10 0 0,0
18.08.2019 22:00:00 15,4 11,9 - - 18 10 - - OSO 1010,4 10 0 0,0
18.08.2019 21:00:00 15,7 11,1 - - 15 8 - - O 1009,6 10 0 0,0
18.08.2019 20:00:00 16,9 12,6 - - 24 13 46 25 OSO 1008,9 22 24 0,0
18.08.2019 19:00:00 17,8 13,0 - - 28 15 48 26 OSO 1008,4 10 24 0,0
18.08.2019 18:00:00 18,6 11,6 - - 34 18 54 29 OSO 1008,2 35 48 0,0
18.08.2019 17:00:00 19,9 13,2 - - 31 17 52 28 OSO 1008,0 35 48 0,0
18.08.2019 16:00:00 19,9 12,3 - - 31 17 50 27 OSO 1007,7 10 48 0,0
18.08.2019 15:00:00 20,1 12,9 - - 31 17 46 25 OSO 1007,2 10 54 0,0
18.08.2019 14:00:00 19,6 11,8 - - 31 17 - - OSO 1006,8 10 42 0,0
18.08.2019 13:00:00 18,8 11,2 - - 24 13 - - O 1006,2 75 36 0,0
18.08.2019 12:00:00 19,2 11,7 - - 24 13 - - O 1005,7 70 54 0,0
18.08.2019 11:00:00 17,5 11,8 - - 24 13 - - O 1005,4 10 48 0,0
18.08.2019 10:00:00 16,2 14,1 17,7 16,7 15 8 - - O 1004,7 10 18 0,0
18.08.2019 09:00:00 14,1 13,0 - - 16 9 - - O 1004,6 10 0 2,0
18.08.2019 08:00:00 15,2 13,9 - - 8 4 - - O 1003,6 14 0 0,2
18.08.2019 07:00:00 15,1 13,5 - - 4 2 - - SO 1003,2 10 0 0,0
18.08.2019 06:00:00 14,9 13,1 - - 5 3 - - OSO 1003,3 35 0 0,0
18.08.2019 05:00:00 14,6 12,8 - - 8 4 - - OSO 1003,3 30 0 0,0
18.08.2019 04:00:00 15,0 13,2 - - 5 3 - - OSO 1003,9 29 0 0,0
18.08.2019 03:00:00 15,5 14,1 - - 8 4 - - OSO 1004,2 23 0 0,0
18.08.2019 02:00:00 15,7 14,2 - - 13 7 - - OSO 1004,5 23 0 0,2
18.08.2019 01:00:00 16,1 14,0 - - 11 6 - - OSO 1004,9 13 - 0,0
18.08.2019 00:00:00 16,3 13,7 - - 13 7 - - SO 1005,0 10 0 0,0
17.08.2019 23:00:00 16,3 12,8 - - 15 8 - - OSO 1005,8 10 0 0,0
17.08.2019 22:00:00 16,4 13,1 - - 22 12 - - OSO 1005,9 10 0 0,0
17.08.2019 21:00:00 16,5 13,1 - - 18 10 - - OSO 1006,1 23 0 0,0
17.08.2019 20:00:00 17,0 13,7 - - 21 11 - - OSO 1006,1 22 0 0,0
17.08.2019 19:00:00 17,6 13,5 - - 22 12 - - OSO 1006,4 26 0 0,0
17.08.2019 18:00:00 18,7 13,7 - - 22 12 - - SO 1006,2 10 24 0,0
17.08.2019 17:00:00 19,6 13,6 - - 24 13 - - OSO 1006,0 29 18 0,0
17.08.2019 16:00:00 20,3 14,4 - - 26 14 - - SO 1006,2 10 30 0,0
17.08.2019 15:00:00 20,4 13,9 - - 28 15 - - SO 1006,2 10 36 0,0
17.08.2019 14:00:00 20,9 14,8 - - 21 11 - - OSO 1006,0 10 42 0,0
17.08.2019 13:00:00 20,4 14,7 - - 21 11 - - OSO 1006,1 26 36 0,0
17.08.2019 12:00:00 19,5 14,1 - - 22 12 - - O 1006,2 29 30 0,0
17.08.2019 11:00:00 17,5 14,3 - - 22 12 - - OSO 1006,1 10 0 0,0
17.08.2019 10:00:00 17,5 14,2 17,5 16,9 18 10 - - OSO 1006,0 10 6 0,0
17.08.2019 09:00:00 16,8 14,1 - - 16 9 - - OSO 1005,5 10 18 0,0
17.08.2019 08:00:00 16,3 14,5 - - 16 9 - - OSO 1005,3 10 54 0,0
17.08.2019 07:00:00 15,0 13,7 - - 15 8 - - SO 1004,9 10 18 0,0
17.08.2019 06:00:00 14,3 13,2 - - 5 3 - - SO 1004,8 10 0 0,0
17.08.2019 05:00:00 15,8 14,7 - - 15 8 - - OSO 1004,7 23 0 0,0
17.08.2019 04:00:00 16,6 15,4 - - 16 9 - - OSO 1004,4 26 0 0,0
17.08.2019 03:00:00 17,2 16,3 - - 18 10 - - OSO 1004,1 30 0 0,0
17.08.2019 02:00:00 17,6 17,0 - - 21 11 - - OSO 1004,3 16 0 0,0
17.08.2019 01:00:00 17,8 17,0 - - 22 12 - - OSO 1004,1 40 - 0,0
17.08.2019 00:00:00 17,8 17,3 - - 24 13 - - OSO 1004,3 10 0 0,4
16.08.2019 23:00:00 17,4 16,9 - - 21 11 48 26 SO 1004,6 5 0 1,2
16.08.2019 22:00:00 17,3 16,9 - - 28 15 52 28 SO 1005,1 2,0 0 2,0
16.08.2019 21:00:00 17,1 16,6 - - 28 15 52 28 SO 1005,4 1,5 0 1,2
16.08.2019 20:00:00 16,9 16,3 - - 29 16 55 30 SSO 1005,9 2,9 0 1,6
16.08.2019 19:00:00 16,9 16,0 - - 28 15 52 28 SSO 1006,6 3,0 0 3,6
16.08.2019 18:00:00 17,0 15,7 - - 26 14 48 26 SSO 1007,4 3,8 0 0,4
16.08.2019 17:00:00 16,8 15,6 - - 29 16 54 29 SSO 1008,3 6 0 1,6
16.08.2019 16:00:00 16,7 15,4 - - 28 15 - - SSO 1009,1 6 0 2,0
16.08.2019 15:00:00 16,8 15,4 - - 26 14 46 25 SSO 1010,2 6 0 0,8
16.08.2019 14:00:00 16,4 15,0 - - 24 13 - - SSO 1011,1 14 0 0,6
16.08.2019 13:00:00 17,1 14,1 - - 26 14 - - SSO 1011,5 10 0 0,0
16.08.2019 12:00:00 17,6 14,9 - - 24 13 - - SSO 1011,9 29 0 0,4
16.08.2019 11:00:00 17,3 13,2 - - 21 11 - - SSO 1012,9 10 0 0,0
16.08.2019 10:00:00 17,5 14,0 17,7 17,0 22 12 - - SSO 1013,7 10 0 0,0
16.08.2019 09:00:00 17,5 13,9 - - 18 10 - - SO 1014,0 10 0 0,0
16.08.2019 08:00:00 17,2 14,4 - - 21 11 - - SO 1014,6 10 0 0,0
16.08.2019 07:00:00 17,0 14,5 - - 21 11 - - SSO 1014,7 10 0 0,0
16.08.2019 06:00:00 16,5 13,9 - - 13 7 - - SSO 1015,4 8 0 0,0
16.08.2019 05:00:00 16,4 14,6 - - 9 5 - - SSO 1015,9 6 0 0,0
16.08.2019 04:00:00 16,4 14,9 - - 9 5 - - SO 1016,4 5 0 0,0
16.08.2019 03:00:00 12,3 11,6 - - 2 1 - - SSE 1016,9 22 0 0,0
16.08.2019 02:00:00 11,5 10,9 - - 2 1 - - NO 1017,4 23 0 0,0
16.08.2019 01:00:00 11,3 10,4 - - 2 1 - - ENE 1017,5 20 - 0,0
16.08.2019 00:00:00 11,3 9,5 - - 5 3 - - O 1018,1 10 0 0,0
15.08.2019 23:00:00 13,9 11,5 - - 2 1 - - NE 1018,4 25 0 0,0
15.08.2019 22:00:00 16,3 11,6 - - 4 2 - - O 1018,0 10 0 0,0
15.08.2019 21:00:00 15,4 11,0 - - 9 5 - - O 1017,7 10 6 0,0
15.08.2019 20:00:00 19,3 10,7 - - 16 9 - - ONO 1017,0 10 60 0,0
15.08.2019 19:00:00 20,7 11,2 - - 21 11 - - O 1017,0 10 36 0,0
15.08.2019 18:00:00 20,4 10,1 - - 26 14 - - ONO 1016,8 10 0 0,0
15.08.2019 17:00:00 20,9 10,7 - - 24 13 - - ONO 1016,2 10 18 0,0
15.08.2019 16:00:00 22,6 10,8 - - 26 14 - - ONO 1015,5 10 60 0,0
15.08.2019 15:00:00 22,4 11,2 - - 28 15 48 26 ONO 1015,4 10 54 0,0
15.08.2019 14:00:00 21,8 11,8 - - 26 14 - - ONO 1015,0 10 36 0,0
15.08.2019 13:00:00 20,4 11,5 - - 28 15 46 25 ONO 1014,7 10 36 0,0

tt = Temperatura
td = dewpoint
tt -20cm = Temperatura -20cm
tt -100cm = Temperatura -100cm
ff = velocità del vento
fx = gusts
dd = direzione del vento
ppp = reduced air pressure
vv = visibility
sd = ore di luce
rr = precipitazioni

Stazioni seguenti

WeatherPro
AMSI
MeteoEarth